1486530001.17,46789,9.94,72936.5,-8.13,-35.65,-35.83,0,*56
1486530002.41,46790,9.94,72938.3,-8.13,-35.71,-35.83,0,*5B
1486530003.65,46791,9.94,72940.3,-8.15,-35.71,-35.89,0,*56
1486530004.88,46792,9.94,72938.0,-8.13,-35.53,-35.71,0,*54
1486530006.1,46793,9.94,72940.5,-8.13,-35.53,-35.71,0,*55
1486530007.36,46794,9.94,72938.5,-8.13,-35.65,-35.83,0,*5A
1486530008.59,46795,9.94,72938.3,-8.13,-35.53,-35.71,0,*53
1486530009.84,46796,9.94,72938.8,-8.13,-35.35,-35.53,0,*50
1486530011.07,46797,9.94,72938.5,-8.13,-35.53,-35.71,0,*51
1486530012.31,46798,9.94,72938.5,-8.11,-35.47,-35.77,0,*5F
1486530013.57,46799,9.94,72942.0,-8.13,-35.65,-35.83,0,*57
1486530014.81,46800,9.94,72942.3,-8.13,-35.83,-36.01,0,*59
1486530016.06,46801,9.94,72936.5,-8.13,-35.83,-35.89,0,*5B
1486530017.31,46802,9.94,72940.3,-8.13,-35.53,-35.83,0,*5F
1486530018.56,46803,9.94,72936.5,-8.13,-35.53,-35.53,0,*53
1486530019.82,46804,9.94,72938.0,-8.13,-35.65,-35.83,0,*5C
1486530021.07,46805,9.94,72936.3,-8.13,-35.83,-35.89,0,*5F
1486530022.34,46806,9.94,72938.8,-8.15,-35.83,-35.89,0,*5A
1486530023.57,46807,9.94,72940.0,-8.13,-35.65,-35.71,0,*52
1486530024.83,46808,9.94,72940.5,-8.13,-35.35,-35.53,0,*58
1486530026.09,46809,9.94,72940.3,-8.13,-35.65,-35.83,0,*51
1486530027.37,46810,9.94,72936.3,-8.15,-35.53,-35.83,0,*5A
1486530028.6,46811,9.94,72938.8,-8.13,-35.65,-35.71,0,*55
1486530029.82,46812,9.94,72938.0,-8.13,-35.53,-35.71,0,*53
1486530031.08,46813,9.94,72936.3,-8.13,-35.35,-35.53,0,*52
1486530032.34,46814,9.94,72940.0,-8.15,-35.35,-35.47,0,*56
1486530033.55,46815,9.94,72942.3,-8.13,-35.47,-35.47,0,*54
1486530034.82,46816,9.94,72938.5,-8.15,-35.47,-35.53,0,*54
1486530036.05,46817,9.94,72940.0,-8.15,-35.47,-35.71,0,*55
1486530037.34,46818,9.94,72938.5,-8.15,-35.65,-35.83,0,*57
1486530038.55,46819,9.94,72942.3,-8.13,-35.47,-35.71,0,*5D
1486530039.81,46820,9.94,72938.8,-8.15,-35.47,-35.53,0,*51
1486530041.04,46821,9.88,72936.0,-8.13,-35.65,-35.71,0,*56
1486530042.3,46822,9.94,72936.5,-8.15,-35.53,-35.71,0,*56
1486530043.5,46823,9.94,72938.5,-8.13,-35.47,-35.71,0,*54
1486530044.76,46824,9.94,72940.3,-8.13,-35.65,-35.83,0,*5E
1486530046.02,46825,9.94,72936.8,-8.13,-35.65,-35.83,0,*5F
1486530047.28,46826,9.94,72938.8,-8.15,-35.53,-35.71,0,*52
1486530048.53,46827,9.94,72942.0,-8.13,-35.35,-35.65,0,*50
1486530049.79,46828,9.94,72940.5,-8.15,-35.47,-35.65,0,*5C
1486530051.03,46829,9.94,72942.3,-8.15,-35.47,-35.71,0,*58
1486530052.27,46830,9.94,72940.0,-8.15,-35.47,-35.71,0,*50
1486530053.55,46831,9.94,72940.8,-8.15,-35.53,-35.83,0,*59
1486530054.84,46832,9.94,72940.5,-8.15,-35.65,-35.83,0,*5F
1486530056.07,46833,9.94,72942.5,-8.13,-35.65,-35.77,0,*53
1486530057.36,46834,9.94,72936.5,-8.15,-35.53,-35.83,0,*5C
1486530058.62,46835,9.88,72936.0,-8.15,-35.35,-35.71,0,*50
1486530059.88,46836,9.94,72940.5,-8.15,-35.47,-35.65,0,*53
1486530061.17,46837,9.94,72940.3,-8.15,-35.35,-35.53,0,*52
1486530062.45,46838,9.94,72936.8,-8.15,-35.35,-35.65,0,*58
1486530063.71,46839,9.94,72938.3,-8.15,-35.47,-35.53,0,*59
1486530064.97,46840,9.94,72940.3,-8.13,-35.53,-35.83,0,*59
1486530066.22,46841,9.94,72936.8,-8.15,-35.53,-35.71,0,*53
1486530067.45,46842,9.94,72938.0,-8.13,-35.47,-35.65,0,*56
1486530068.74,46843,9.94,72940.3,-8.15,-35.35,-35.65,0,*54
1486530069.99,46844,9.88,72936.5,-8.15,-35.53,-35.71,0,*56
1486530071.25,46845,9.94,72942.3,-8.15,-35.47,-35.65,0,*57
1486530072.52,46846,9.94,72940.8,-8.15,-35.47,-35.53,0,*51
1486530073.78,46847,9.94,72938.8,-8.13,-35.35,-35.53,0,*53
1486530075.03,46848,9.94,72942.0,-8.13,-35.35,-35.53,0,*5C
1486530076.27,46849,9.94,72940.8,-8.15,-35.13,-35.29,0,*52
1486530077.54,46850,9.94,72936.5,-8.15,-35.23,-35.29,0,*59
1486530078.78,46851,9.94,72936.3,-8.13,-35.35,-35.47,0,*51
1486530080.01,46852,9.94,72938.5,-8.13,-35.29,-35.35,0,*5A
1486530081.28,46853,9.94,72938.5,-8.15,-35.29,-35.53,0,*5D
1486530082.57,46854,9.94,72940.0,-8.15,-35.35,-35.53,0,*57
1486530083.85,46855,9.94,72942.0,-8.15,-35.35,-35.53,0,*56
1486530085.06,46856,9.94,72938.3,-8.13,-35.29,-35.47,0,*5B
1486530086.31,46857,9.94,72940.8,-8.15,-35.29,-35.47,0,*5C
1486530087.57,46858,9.94,72940.8,-8.15,-35.29,-35.35,0,*56
1486530088.81,46859,9.94,72942.3,-8.13,-35.29,-35.35,0,*51
1486530090.07,46860,9.94,72940.5,-8.15,-35.29,-35.53,0,*5D
1486530091.31,46861,9.94,72942.8,-8.13,-35.29,-35.53,0,*5A
1486530092.55,46862,9.94,72940.5,-8.15,-35.29,-35.47,0,*5A
1486530093.79,46863,9.94,72942.5,-8.13,-35.29,-35.35,0,*58
1486530095.03,46864,9.94,72942.8,-8.13,-35.29,-35.53,0,*5F
1486530096.31,46865,9.94,72942.5,-8.15,-35.35,-35.65,0,*50
1486530097.55,46866,9.88,72936.8,-8.15,-35.47,-35.71,0,*53
1486530098.84,46867,9.94,72940.3,-8.15,-35.35,-35.83,0,*5A
1486530100.1,46868,9.94,72940.5,-8.15,-35.23,-35.47,0,*5A
1486530101.37,46869,9.94,72942.3,-8.15,-35.29,-35.35,0,*54
1486530102.63,46870,9.94,72938.8,-8.13,-35.23,-35.35,0,*50
1486530103.87,46871,9.94,72938.5,-8.15,-35.29,-35.47,0,*58
1486530105.14,46872,9.88,72938.3,-8.15,-35.29,-35.35,0,*5E
1486530106.35,46873,9.94,72940.0,-8.13,-35.29,-35.47,0,*5C
1486530107.56,46874,9.94,72938.8,-8.13,-35.29,-35.47,0,*5B
1486530108.78,46875,9.88,72938.8,-8.13,-35.29,-35.47,0,*5A
1486530110.02,46876,9.94,72940.5,-8.15,-35.29,-35.47,0,*5F
1486530111.28,46877,9.94,72940.0,-8.15,-35.23,-35.47,0,*54
1486530112.55,46878,9.94,72940.8,-8.15,-35.29,-35.53,0,*54
1486530113.82,46879,9.94,72940.8,-8.15,-35.29,-35.53,0,*55
1486530115.03,46880,9.94,72938.8,-8.13,-35.29,-35.47,0,*50
1486530116.31,46881,9.94,72942.3,-8.15,-35.35,-35.65,0,*5A
1486530117.54,46882,9.88,72938.0,-8.13,-35.35,-35.71,0,*5A
1486530118.8,46883,9.94,72940.5,-8.13,-35.35,-35.53,0,*5B
1486530120.05,46884,9.88,72938.0,-8.15,-35.29,-35.47,0,*52
1486530121.28,46885,9.94,72938.3,-8.13,-35.29,-35.65,0,*55
1486530122.56,46886,9.88,72936.3,-8.15,-35.35,-35.65,0,*5D
1486530123.82,46887,9.94,72940.0,-8.13,-35.35,-35.65,0,*5A
1486530125.11,46888,9.94,72938.8,-8.15,-35.07,-35.35,0,*57
1486530126.35,46889,9.88,72938.5,-8.13,-35.07,-35.29,0,*5D
1486530127.59,46890,9.94,72940.3,-8.13,-35.29,-35.53,0,*54
1486530128.86,46891,9.88,72936.0,-8.15,-35.23,-35.47,0,*5C
1486530130.14,46892,9.94,72940.3,-8.15,-35.23,-35.35,0,*5A
1486530131.41,46893,9.94,72938.8,-8.15,-35.13,-35.35,0,*58
1486530132.65,46894,9.94,72936.8,-8.15,-35.13,-35.47,0,*5A
1486530133.91,46895,9.94,72942.8,-8.15,-35.29,-35.53,0,*57
1486530135.18,46896,9.94,72940.3,-8.15,-35.29,-35.53,0,*54
1486530136.44,46897,9.94,72940.5,-8.13,-35.23,-35.35,0,*59
1486530137.7,46898,9.88,72936.8,-8.15,-35.13,-35.35,0,*53
1486530138.96,46899,9.94,72942.3,-8.15,-35.29,-35.65,0,*5E
1486530140.25,46900,9.94,72944.3,-8.15,-35.23,-35.35,0,*50
1486530141.49,46901,9.94,72938.8,-8.15,-35.29,-35.47,0,*5E
1486530142.73,46902,9.94,72940.5,-8.15,-35.29,-35.47,0,*5D
1486530144.02,46903,9.94,72940.0,-8.15,-35.23,-35.35,0,*53
1486530145.23,46904,9.94,72942.3,-8.13,-35.13,-35.47,0,*54
1486530146.49,46905,9.94,72940.3,-8.15,-35.13,-35.35,0,*56
1486530147.74,46906,9.94,72940.0,-8.13,-35.07,-35.29,0,*5B
1486530149.0,46907,9.94,72940.5,-8.15,-35.13,-35.35,0,*54
1486530150.26,46908,9.94,72940.5,-8.15,-35.13,-35.35,0,*5B
1486530151.5,46909,9.94,72938.3,-8.15,-35.13,-35.47,0,*5F
1486530152.76,46910,9.94,72942.0,-8.15,-35.13,-35.35,0,*52
1486530154.02,46911,9.94,72940.0,-8.15,-35.13,-35.53,0,*53
1486530155.28,46912,9.94,72942.3,-8.13,-35.23,-35.53,0,*55
1486530156.52,46913,9.94,72940.5,-8.15,-35.29,-35.71,0,*58
1486530157.76,46914,9.94,72938.8,-8.13,-35.29,-35.53,0,*59
1486530159.02,46915,9.94,72940.3,-8.11,-35.17,-35.41,0,*54
1486530160.25,46916,9.88,72938.3,-8.13,-35.23,-35.47,0,*54
1486530161.46,46917,9.88,72938.8,-8.13,-35.13,-35.47,0,*56
1486530162.67,46918,9.94,72942.0,-8.13,-35.13,-35.47,0,*59
1486530163.88,46919,9.94,72940.0,-8.13,-35.13,-35.47,0,*58
1486530165.14,46920,9.94,72940.3,-8.13,-35.23,-35.53,0,*54
1486530166.38,46921,9.94,72936.8,-8.15,-35.13,-35.47,0,*55
1486530167.62,46922,9.94,72940.0,-8.15,-35.13,-35.47,0,*56
1486530168.88,46923,9.94,72940.5,-8.13,-35.23,-35.53,0,*57
1486530170.14,46924,9.94,72938.8,-8.13,-35.23,-35.53,0,*50
1486530171.43,46925,9.88,72936.3,-8.15,-35.23,-35.65,0,*52
1486530172.69,46926,9.88,72936.3,-8.13,-35.23,-35.53,0,*52
1486530173.93,46927,9.94,72940.5,-8.13,-35.07,-35.47,0,*50
1486530175.14,46928,9.94,72938.3,-8.13,-35.13,-35.47,0,*5A
1486530176.4,46929,9.94,72942.0,-8.15,-35.23,-35.47,0,*5E
1486530177.64,46930,9.94,72938.5,-8.13,-35.07,-35.47,0,*56
1486530178.94,46931,9.94,72940.8,-8.15,-35.07,-35.35,0,*54
1486530180.2,46932,9.94,72938.8,-8.13,-35.23,-35.53,0,*57
1486530181.45,46933,9.88,72938.0,-8.13,-35.23,-35.65,0,*53
1486530182.72,46934,9.94,72942.8,-8.15,-35.23,-35.71,0,*57
1486530183.97,46935,9.94,72940.3,-8.13,-35.23,-35.53,0,*50
1486530185.24,46936,9.88,72938.8,-8.11,-35.07,-35.47,0,*52
1486530186.47,46937,9.94,72940.5,-8.13,-35.13,-35.53,0,*51
1486530187.68,46938,9.88,72938.5,-8.13,-35.13,-35.47,0,*5B
1486530188.98,46939,9.94,72938.5,-8.15,-34.95,-35.35,0,*56
1486530190.25,46940,9.94,72938.8,-8.15,-35.07,-35.47,0,*57
1486530191.52,46941,9.94,72940.3,-8.15,-35.07,-35.47,0,*56
1486530192.78,46942,9.94,72942.5,-8.13,-35.07,-35.35,0,*56
1486530193.99,46943,9.94,72938.8,-8.13,-35.13,-35.47,0,*57
1486530195.2,46944,9.94,72940.5,-8.13,-35.13,-35.47,0,*50
1486530196.41,46945,9.94,72938.3,-8.13,-35.13,-35.47,0,*51
1486530197.65,46946,9.88,72936.0,-8.13,-35.29,-35.65,0,*5B
1486530198.88,46947,9.94,72940.5,-8.13,-35.13,-35.65,0,*53
1486530200.14,46948,9.94,72942.3,-8.15,-35.13,-35.53,0,*5F
1486530201.41,46949,9.88,72938.8,-8.15,-35.07,-35.47,0,*5E
1486530202.67,46950,9.94,72938.8,-8.13,-35.07,-35.35,0,*55
1486530203.94,46951,9.94,72940.8,-8.15,-34.95,-35.47,0,*5D
1486530205.21,46952,9.94,72936.5,-8.15,-35.07,-35.47,0,*54
1486530206.45,46953,9.94,72940.8,-8.15,-35.13,-35.47,0,*50
1486530207.72,46954,9.94,72942.5,-8.13,-35.07,-35.65,0,*54
1486530208.98,46955,9.94,72940.3,-8.13,-35.07,-35.53,0,*50
1486530210.24,46956,9.94,72938.8,-8.15,-35.13,-35.53,0,*50
1486530211.51,46957,9.94,72940.8,-8.13,-35.07,-35.53,0,*52
1486530212.77,46958,9.88,72938.3,-8.15,-35.13,-35.53,0,*5E
1486530214.05,46959,9.94,72940.8,-8.15,-35.23,-35.65,0,*59
1486530215.32,46960,9.94,72940.3,-8.15,-35.13,-35.53,0,*55
1486530216.61,46961,9.88,72936.0,-8.15,-35.07,-35.65,0,*54
1486530217.9,46962,9.94,72936.5,-8.15,-35.07,-35.53,0,*52
1486530219.17,46963,9.94,72942.5,-8.15,-35.07,-35.47,0,*56
1486530220.47,46964,9.88,72938.8,-8.15,-34.95,-35.35,0,*5E
1486530221.73,46965,9.94,72940.5,-8.13,-34.95,-35.53,0,*59
1486530223.03,46966,9.94,72938.8,-8.15,-34.95,-35.53,0,*5C
1486530224.29,46967,9.94,72936.8,-8.13,-34.95,-35.53,0,*5B
1486530225.59,46968,9.94,72940.5,-8.15,-34.95,-35.65,0,*57
1486530226.88,46969,9.94,72940.5,-8.15,-35.07,-35.65,0,*5C
1486530228.14,46970,9.94,72936.3,-8.15,-34.89,-35.35,0,*56
1486530229.35,46971,9.94,72940.5,-8.13,-34.89,-35.47,0,*54
1486530230.64,46972,9.94,72940.8,-8.15,-35.07,-35.53,0,*53
1486530231.91,46973,9.94,72940.3,-8.15,-34.89,-35.35,0,*55
1486530233.17,46974,9.88,72938.0,-8.15,-34.77,-35.35,0,*53
1486530234.38,46975,9.94,72938.5,-8.13,-34.89,-35.47,0,*50
1486530235.65,46976,9.94,72940.5,-8.13,-35.07,-35.53,0,*51
1486530236.94,46977,9.88,72936.3,-8.15,-35.07,-35.65,0,*53
1486530238.21,46978,9.94,72936.5,-8.15,-34.95,-35.47,0,*56
1486530239.51,46979,9.94,72940.0,-8.15,-35.07,-35.53,0,*58
1486530240.8,46980,9.94,72938.0,-8.15,-35.07,-35.65,0,*5B
1486530242.06,46981,9.94,72938.5,-8.15,-35.13,-35.65,0,*5F
1486530243.29,46982,9.94,72942.3,-8.13,-35.13,-35.65,0,*5A
1486530244.55,46983,9.88,72938.3,-8.13,-34.95,-35.65,0,*54
1486530245.79,46984,9.94,72940.0,-8.15,-35.13,-35.71,0,*5F
1486530247.05,46985,9.94,72940.0,-8.13,-34.95,-35.65,0,*52
1486530248.29,46986,9.94,72942.3,-8.15,-34.89,-35.47,0,*5A
1486530249.55,46987,9.88,72938.0,-8.13,-34.95,-35.65,0,*50
1486530250.79,46988,9.88,72936.8,-8.15,-34.89,-35.47,0,*54
1486530252.03,46989,9.88,72936.3,-8.15,-34.89,-35.47,0,*55
1486530253.3,46990,9.94,72936.5,-8.15,-34.95,-35.47,0,*50
1486530254.54,46991,9.94,72938.8,-8.11,-34.89,-35.47,0,*58
1486530255.79,46992,9.94,72936.8,-8.15,-34.77,-35.47,0,*5E
1486530257.03,46993,9.88,72938.3,-8.13,-34.71,-35.35,0,*5A
1486530258.26,46994,9.94,72938.3,-8.13,-34.89,-35.53,0,*5A
1486530259.49,46995,9.94,72936.8,-8.13,-34.89,-35.35,0,*5B
1486530260.71,46996,9.88,72938.5,-8.13,-34.77,-35.47,0,*5C
1486530261.98,46997,9.94,72938.3,-8.15,-34.71,-35.35,0,*58
1486530263.22,46998,9.88,72938.5,-8.15,-34.89,-35.47,0,*55
1486530264.52,46999,9.94,72938.0,-8.15,-34.95,-35.53,0,*5C
1486530265.76,47000,9.88,72936.5,-8.15,-34.89,-35.71,0,*59
1486530267.05,47001,9.94,72938.8,-8.15,-34.95,-35.65,0,*50
1486530268.31,47002,9.94,72942.5,-8.15,-34.89,-35.53,0,*5B
1486530269.55,47003,9.94,72936.5,-8.13,-34.77,-35.53,0,*5D
1486530270.78,47004,9.94,72938.3,-8.13,-34.89,-35.65,0,*5E
1486530272.04,47005,9.94,72938.0,-8.15,-34.89,-35.65,0,*59
1486530273.31,47006,9.94,72942.3,-8.15,-34.89,-35.65,0,*5A
1486530274.55,47007,9.94,72938.0,-8.13,-34.77,-35.53,0,*59
1486530275.8,47008,9.94,72938.8,-8.15,-34.71,-35.47,0,*53
1486530277.04,47009,9.88,72936.5,-8.15,-34.77,-35.47,0,*54
1486530278.31,47010,9.94,72936.5,-8.15,-34.77,-35.53,0,*59
1486530279.57,47011,9.94,72936.5,-8.15,-34.89,-35.65,0,*5C
1486530280.83,47012,9.94,72938.0,-8.15,-34.89,-35.65,0,*5F
1486530282.07,47013,9.94,72938.3,-8.15,-34.89,-35.71,0,*5B
1486530283.34,47014,9.94,72936.5,-8.15,-34.89,-35.53,0,*5C
1486530284.6,47015,9.88,72938.8,-8.15,-34.77,-35.65,0,*59
1486530285.87,47016,9.94,72942.3,-8.15,-34.77,-35.53,0,*5F
1486530287.14,47017,9.88,72936.8,-8.15,-34.71,-35.65,0,*5D
1486530288.37,47018,9.88,72936.8,-8.13,-34.89,-35.65,0,*53
1486530289.64,47019,9.88,72938.8,-8.15,-34.95,-35.71,0,*5C
1486530290.93,47020,9.94,72940.8,-8.15,-35.07,-35.65,0,*59
1486530292.23,47021,9.88,72938.0,-8.15,-34.95,-35.65,0,*52
1486530293.49,47022,9.94,72938.5,-8.15,-35.07,-35.71,0,*5E
1486530294.75,47023,9.94,72938.0,-8.15,-34.89,-35.65,0,*5D
1486530296.01,47024,9.88,72936.3,-8.15,-34.89,-35.65,0,*5A
1486530297.28,47025,9.88,72936.8,-8.15,-34.77,-35.65,0,*5A
1486530298.5,47026,9.88,72936.8,-8.17,-34.77,-35.71,0,*5E
1486530299.77,47027,9.94,72942.0,-8.15,-34.77,-35.53,0,*5D
1486530301.0,47028,9.94,72938.5,-8.15,-34.89,-35.71,0,*53
1486530302.27,47029,9.94,72938.0,-8.15,-34.89,-35.65,0,*57
1486530303.54,47030,9.94,72938.5,-8.15,-34.71,-35.53,0,*5D
1486530304.75,47031,9.88,72936.3,-8.17,-34.77,-35.59,0,*52
1486530305.99,47032,9.94,72938.5,-8.17,-34.83,-35.59,0,*5A
1486530307.26,47033,9.88,72936.0,-8.15,-34.77,-35.65,0,*5D
1486530308.52,47034,9.94,72938.5,-8.15,-34.77,-35.65,0,*5A
1486530309.82,47035,9.94,72940.5,-8.15,-34.53,-35.35,0,*58
1486530311.07,47036,9.88,72938.0,-8.15,-34.59,-35.47,0,*54
1486530312.34,47037,9.88,72936.0,-8.15,-34.71,-35.65,0,*5F
1486530313.61,47038,9.94,72942.3,-8.15,-34.95,-35.71,0,*5F
1486530314.84,47039,9.94,72938.3,-8.15,-34.89,-35.71,0,*53
1486530316.06,47040,9.88,72938.0,-8.17,-34.77,-35.77,0,*58
1486530317.31,47041,9.88,72936.3,-8.17,-34.83,-35.89,0,*53
1486530318.55,47042,9.94,72942.3,-8.17,-34.83,-35.71,0,*57
1486530319.8,47043,9.94,72940.5,-8.17,-34.83,-35.77,0,*50
1486530321.03,47044,9.88,72938.0,-8.17,-34.83,-35.71,0,*51
1486530322.27,47045,9.88,72936.8,-8.17,-34.83,-35.71,0,*50
1486530323.51,47046,9.88,72936.5,-8.19,-34.77,-35.59,0,*5C
1486530324.75,47047,9.88,72938.0,-8.17,-34.65,-35.59,0,*50
1486530325.98,47048,9.94,72938.5,-8.17,-34.83,-35.71,0,*5D
1486530327.2,47049,9.94,72938.3,-8.17,-34.77,-35.71,0,*57
1486530328.44,47050,9.88,72938.0,-8.17,-34.59,-35.41,0,*50
1486530329.66,47051,9.88,72938.3,-8.17,-34.59,-35.59,0,*58
1486530330.9,47052,9.88,72938.5,-8.17,-34.65,-35.59,0,*54
1486530332.11,47053,9.88,72940.0,-8.17,-34.77,-35.59,0,*56
1486530333.36,47054,9.88,72934.5,-8.17,-34.83,-35.77,0,*56
1486530334.59,47055,9.94,72940.3,-8.17,-34.65,-35.59,0,*53
1486530335.84,47056,9.88,72938.8,-8.17,-34.65,-35.77,0,*5C
1486530337.07,47057,9.88,72938.0,-8.17,-34.77,-35.77,0,*5E
1486530338.3,47058,9.94,72940.3,-8.19,-34.77,-35.59,0,*53
1486530339.54,47059,9.94,72938.8,-8.17,-34.65,-35.59,0,*5F
1486530340.78,47060,9.94,72942.0,-8.17,-34.59,-35.53,0,*50
1486530342.03,47061,9.88,72938.5,-8.17,-34.65,-35.77,0,*58
1486530343.28,47062,9.88,72938.8,-8.17,-34.83,-35.77,0,*53
1486530344.52,47063,9.88,72938.5,-8.17,-34.95,-35.77,0,*55
1486530345.76,47064,9.94,72940.8,-8.17,-34.59,-35.53,0,*54
1486530346.98,47065,9.88,72936.8,-8.17,-34.59,-35.71,0,*55
1486530348.2,47066,9.88,72936.0,-8.17,-34.77,-35.77,0,*5C
1486530349.45,47067,9.88,72938.5,-8.17,-34.83,-35.77,0,*56
1486530350.66,47068,9.88,72936.8,-8.17,-34.59,-35.71,0,*58
1486530351.93,47069,9.94,72940.0,-8.15,-34.77,-35.65,0,*52
1486530353.17,47070,9.88,72936.0,-8.15,-34.77,-35.71,0,*5F
1486530354.41,47071,9.88,72936.8,-8.17,-34.65,-35.71,0,*5F
1486530355.64,47072,9.94,72940.3,-8.17,-34.77,-35.77,0,*59
1486530356.86,47073,9.88,72938.8,-8.17,-34.77,-35.77,0,*58
1486530358.13,47074,9.88,72938.0,-8.15,-34.77,-35.83,0,*56
1486530359.35,47075,9.94,72942.3,-8.17,-35.01,-36.07,0,*5A
1486530360.57,47076,9.88,72938.0,-8.17,-34.77,-35.89,0,*5C
1486530361.81,47077,9.94,72940.0,-8.17,-34.83,-35.77,0,*57
1486530363.06,47078,9.94,72940.8,-8.19,-34.77,-35.89,0,*5C
1486530364.31,47079,9.88,72938.5,-8.19,-34.77,-35.77,0,*5C
1486530365.58,47080,9.88,72936.8,-8.19,-34.83,-35.89,0,*50
1486530366.81,47081,9.88,72936.8,-8.17,-34.77,-35.89,0,*54
1486530368.03,47082,9.94,72942.5,-8.17,-34.77,-35.77,0,*56
1486530369.25,47083,9.88,72938.5,-8.17,-34.77,-35.77,0,*57
1486530370.49,47084,9.88,72936.3,-8.17,-34.65,-35.71,0,*55
1486530371.73,47085,9.88,72936.8,-8.19,-34.59,-35.59,0,*5F
1486530372.97,47086,9.94,72940.8,-8.17,-34.65,-35.71,0,*57
1486530374.19,47087,9.88,72938.5,-8.17,-34.77,-35.89,0,*52
1486530375.44,47088,9.94,72940.8,-8.19,-34.77,-35.77,0,*52
1486530376.69,47089,9.88,72936.3,-8.17,-34.65,-35.77,0,*5E
1486530377.9,47090,9.88,72940.0,-8.17,-34.59,-35.71,0,*5F
1486530379.13,47091,9.94,72940.5,-8.17,-34.59,-35.77,0,*58
1486530380.36,47092,9.88,72938.0,-8.19,-34.59,-35.71,0,*53
1486530381.63,47093,9.88,72938.0,-8.19,-34.65,-35.71,0,*5D
1486530382.87,47094,9.94,72942.5,-8.19,-34.59,-35.71,0,*55
1486530384.11,47095,9.88,72938.8,-8.19,-34.47,-35.59,0,*51
1486530385.33,47096,9.94,72942.5,-8.17,-34.59,-35.77,0,*5F
1486530386.58,47097,9.88,72938.3,-8.19,-34.77,-35.89,0,*5D
1486530387.82,47098,9.88,72938.5,-8.19,-34.77,-35.71,0,*55
1486530389.04,47099,9.88,72938.8,-8.17,-34.59,-35.59,0,*5C
1486530390.25,47100,9.94,72938.8,-8.17,-34.59,-35.71,0,*57
1486530391.51,47101,9.88,72938.8,-8.19,-34.65,-35.71,0,*57
1486530392.77,47102,9.94,72942.3,-8.17,-34.65,-35.89,0,*5D
1486530394.02,47103,9.88,72936.0,-8.17,-34.65,-35.89,0,*5C
1486530395.26,47104,9.94,72942.8,-8.19,-34.59,-35.71,0,*5D
1486530396.5,47105,9.88,72938.0,-8.17,-34.83,-35.77,0,*53
1486530397.77,47106,9.94,72940.8,-8.19,-34.83,-35.89,0,*5F
1486530399.05,47107,9.88,72940.5,-8.19,-34.65,-35.89,0,*56
1486530400.29,47108,9.94,72942.8,-8.19,-34.59,-35.77,0,*57
1486530401.52,47109,9.88,72938.0,-8.17,-34.47,-35.77,0,*57
1486530402.74,47110,9.88,72940.3,-8.17,-34.47,-35.59,0,*53
1486530403.98,47111,9.94,72940.8,-8.19,-34.59,-35.77,0,*5F
1486530405.22,47112,9.88,72940.0,-8.19,-34.59,-35.71,0,*5A
1486530406.44,47113,9.88,72938.5,-8.17,-34.59,-35.71,0,*55
1486530407.71,47114,9.88,72936.5,-8.19,-34.65,-35.77,0,*55
1486530408.96,47115,9.88,72938.5,-8.19,-34.59,-35.89,0,*5A
1486530410.18,47116,9.88,72940.0,-8.17,-34.77,-35.77,0,*5A
1486530411.43,47117,9.94,72942.8,-8.19,-34.77,-35.77,0,*55
1486530412.67,47118,9.88,72936.5,-8.19,-34.59,-35.71,0,*50
1486530413.9,47119,9.88,72938.8,-8.19,-34.41,-35.59,0,*52
1486530415.12,47120,9.94,72940.3,-8.17,-34.47,-35.59,0,*50
1486530416.33,47121,9.88,72938.5,-8.17,-34.59,-35.71,0,*54
1486530417.55,47122,9.88,72938.3,-8.17,-34.47,-35.59,0,*52
1486530418.79,47123,9.88,72936.0,-8.19,-34.47,-35.59,0,*5D
1486530420.04,47124,9.88,72940.0,-8.19,-34.47,-35.77,0,*56
1486530421.26,47125,9.88,72942.3,-8.17,-34.59,-35.77,0,*56
1486530422.51,47126,9.88,72938.3,-8.19,-34.59,-35.89,0,*5A
1486530423.79,47127,9.88,72936.0,-8.19,-34.65,-35.89,0,*54
1486530425.04,47128,9.88,72938.0,-8.19,-34.59,-35.77,0,*55
1486530426.28,47129,9.88,72940.8,-8.19,-34.59,-35.77,0,*54
1486530427.53,47130,9.94,72942.8,-8.19,-34.59,-35.89,0,*5D
1486530428.78,47131,9.88,72936.8,-8.19,-34.59,-35.89,0,*5C
1486530430.03,47132,9.88,72940.0,-8.17,-34.65,-35.89,0,*5E
1486530431.31,47133,9.88,72942.3,-8.19,-34.65,-35.89,0,*51
1486530432.56,47134,9.88,72938.5,-8.19,-34.59,-35.77,0,*58
1486530433.81,47135,9.88,72940.5,-8.19,-34.47,-35.77,0,*56
1486530435.05,47136,9.88,72938.3,-8.19,-34.47,-35.71,0,*53
1486530436.29,47137,9.88,72936.5,-8.19,-34.47,-35.77,0,*54
1486530437.52,47138,9.88,72938.3,-8.17,-34.47,-35.89,0,*54
1486530438.75,47139,9.88,72936.0,-8.17,-34.47,-35.89,0,*55
1486530440.0,47140,9.88,72942.0,-8.17,-34.65,-35.89,0,*5B
1486530441.22,47141,9.94,72940.3,-8.17,-34.47,-35.77,0,*5B
1486530442.46,47142,9.94,72940.3,-8.17,-34.31,-35.59,0,*55
1486530443.75,47143,9.88,72938.3,-8.19,-34.31,-35.53,0,*50
1486530444.98,47144,9.88,72938.5,-8.19,-34.41,-35.71,0,*50
1486530446.21,47145,9.94,72940.5,-8.19,-34.41,-35.59,0,*5B
1486530447.43,47146,9.88,72942.3,-8.17,-34.47,-35.71,0,*5A
1486530448.64,47147,9.88,72938.5,-8.17,-34.47,-35.71,0,*5B
1486530449.89,47148,9.88,72938.5,-8.17,-34.65,-35.89,0,*53
1486530451.15,47149,9.88,72938.8,-8.19,-34.59,-35.89,0,*53
1486530452.37,47150,9.88,72940.3,-8.17,-34.47,-35.77,0,*5B
1486530453.58,47151,9.94,72942.8,-8.17,-34.41,-35.71,0,*5A
1486530454.81,47152,9.88,72936.8,-8.19,-34.41,-35.71,0,*57
1486530456.03,47153,9.88,72936.0,-8.17,-34.47,-35.71,0,*5E
1486530457.24,47154,9.88,72938.5,-8.17,-34.41,-35.59,0,*55
1486530458.45,47155,9.88,72938.0,-8.17,-34.47,-35.71,0,*58
1486530459.67,47156,9.88,72940.0,-8.17,-34.59,-35.77,0,*52
1486530460.92,47157,9.88,72938.5,-8.19,-34.41,-35.77,0,*54
1486530462.13,47158,9.88,72942.0,-8.17,-34.41,-35.77,0,*55
1486530463.36,47159,9.94,72942.5,-8.17,-34.59,-35.89,0,*5C
1486530464.58,47160,9.88,72936.0,-8.17,-34.47,-35.77,0,*58
1486530465.79,47161,9.88,72936.0,-8.17,-34.41,-35.71,0,*59
1486530467.02,47162,9.88,72938.5,-8.17,-34.59,-35.89,0,*54
1486530468.27,47163,9.88,72938.8,-8.17,-34.65,-35.89,0,*5A
1486530469.49,47164,9.88,72938.0,-8.17,-34.47,-35.89,0,*5D
1486530470.72,47165,9.88,72938.8,-8.17,-34.59,-35.89,0,*53
1486530471.95,47166,9.94,72942.8,-8.17,-34.47,-35.89,0,*5F
1486530473.17,47167,9.88,72936.5,-8.17,-34.59,-35.89,0,*51
1486530474.45,47168,9.88,72938.8,-8.17,-34.65,-35.95,0,*5C
1486530475.72,47169,9.88,72938.8,-8.17,-34.65,-35.95,0,*5D
1486530476.93,47170,9.88,72940.0,-8.17,-34.77,-36.07,0,*5E
1486530478.21,47171,9.88,72938.8,-8.17,-34.65,-35.95,0,*54
1486530479.42,47172,9.88,72936.5,-8.17,-34.41,-35.77,0,*5D
1486530480.65,47173,9.88,72936.0,-8.17,-34.47,-35.89,0,*5B
1486530481.88,47174,9.88,72938.3,-8.17,-34.59,-35.89,0,*53
1486530483.14,47175,9.88,72938.8,-8.19,-34.65,-36.07,0,*56
1486530484.44,47176,9.88,72938.3,-8.19,-34.65,-35.95,0,*5D
1486530485.68,47177,9.88,72938.5,-8.19,-34.77,-36.07,0,*57
1486530486.91,47178,9.88,72940.3,-8.17,-34.65,-36.07,0,*55
1486530488.15,47179,9.88,72938.5,-8.19,-34.77,-36.07,0,*59
1486530489.44,47180,9.88,72936.3,-8.19,-34.83,-36.13,0,*51
1486530490.71,47181,9.88,72938.0,-8.19,-34.59,-35.95,0,*5A
1486530491.95,47182,9.88,72936.0,-8.19,-34.77,-36.07,0,*5D
1486530493.21,47183,9.88,72938.8,-8.19,-34.65,-36.07,0,*5F
1486530494.49,47184,9.88,72942.0,-8.17,-34.65,-35.95,0,*5E
1486530495.75,47185,9.88,72936.5,-8.19,-34.65,-36.07,0,*59
1486530497.02,47186,9.88,72938.8,-8.19,-34.59,-35.95,0,*5D
1486530498.26,47187,9.88,72938.3,-8.17,-34.65,-36.07,0,*55
1486530499.56,47188,9.88,72942.8,-8.19,-34.65,-36.25,0,*54
1486530500.82,47189,9.88,72936.5,-8.17,-34.83,-36.13,0,*56
1486530502.06,47190,9.88,72938.8,-8.17,-34.77,-36.13,0,*55
1486530503.29,47191,9.88,72938.8,-8.19,-34.77,-36.07,0,*5F
1486530504.56,47192,9.88,72940.0,-8.19,-34.77,-36.13,0,*59
1486530505.77,47193,9.88,72938.8,-8.17,-34.77,-36.07,0,*53
1486530507.03,47194,9.94,72942.5,-8.19,-34.65,-36.07,0,*59
1486530508.31,47195,9.88,72940.5,-8.19,-34.59,-35.95,0,*5F